Date,TemperatureHighF,TemperatureAvgF,TemperatureLowF,DewpointHighF,DewpointAvgF,DewpointLowF,HumidityHigh,HumidityAvg,HumidityLow,PressureMaxIn,PressureMinIn,WindSpeedMaxMPH,WindSpeedAvgMPH,GustSpeedMaxMPH,PrecipitationSumIn
2013-2-1,31.4,27.4,21.8,19.9,12.3,7.2,70,53,44,30.05,29.58,7,2,21,0.00
2013-2-2,28.8,23.3,15.3,13.7,9.6,6.5,72,56,46,30.23,30.04,7,1,14,0.00
2013-2-3,25.6,23.8,20.3,22.3,19.9,14.4,92,85,63,30.05,29.72,5,1,9,0.00
2013-2-4,28.2,22.7,16.3,19.9,12.8,7.9,92,67,49,29.91,29.70,8,2,16,0.00
2013-2-5,28.5,23.6,18.4,22.7,14.0,7.9,92,67,54,30.02,29.93,2,0,9,0.00
2013-2-6,36.4,28.3,21.4,26.5,20.4,8.9,95,74,49,30.27,29.92,6,1,14,0.02
2013-2-7,26.4,21.0,12.6,12.5,5.6,3.1,77,52,38,30.52,30.29,6,1,15,0.00
2013-2-8,32.5,27.4,16.6,30.7,24.7,13.6,98,90,65,30.48,29.64,13,4,31,0.01
2013-2-9,19.7,16.9,12.9,18.5,15.3,10.5,95,93,90,30.16,29.58,14,7,29,0.00
2013-2-10,31.1,17.4,2.6,26.0,14.4,-0.1,99,88,76,30.39,30.18,6,1,14,0.00
2013-2-11,38.4,26.1,8.9,38.1,25.1,6.8,99,96,90,30.34,29.61,2,0,10,0.00
2013-2-12,42.5,36.6,31.8,33.8,30.7,28.1,100,80,61,29.86,29.60,6,2,17,0.13
2013-2-13,41.8,32.7,23.8,28.3,25.9,21.3,92,77,58,29.86,29.72,5,0,13,0.04
2013-2-14,40.7,32.8,25.5,27.9,24.9,21.3,92,74,52,29.98,29.72,3,1,12,0.01
2013-2-15,48.8,35.8,22.6,36.2,30.3,20.5,97,82,60,29.99,29.89,7,2,18,0.02
2013-2-16,38.0,33.2,26.7,32.9,27.6,20.6,97,81,62,29.94,29.73,6,1,12,0.03
2013-2-17,29.0,20.5,15.9,19.4,13.4,3.7,93,75,56,29.69,29.36,12,6,26,0.01
2013-2-18,29.2,20.8,13.5,6.2,4.1,2.6,62,49,33,30.14,29.66,10,4,27,0.00
2013-2-19,45.0,33.8,18.4,39.7,25.1,6.2,98,71,52,30.15,29.58,7,1,13,0.37
2013-2-20,38.1,31.5,25.2,37.9,23.1,14.4,99,72,51,29.76,29.53,6,2,20,0.00
2013-2-21,30.3,25.7,22.7,16.7,15.0,12.3,74,64,54,30.15,29.75,8,3,20,0.00
2013-2-22,38.3,30.0,20.1,26.1,22.0,16.6,88,73,56,30.39,30.20,7,2,16,0.00
2013-2-23,37.7,32.8,27.7,32.1,29.5,24.8,97,88,79,30.34,29.95,6,1,15,0.02
2013-2-24,36.1,33.3,29.9,35.8,32.7,29.4,99,98,96,29.92,29.69,7,2,19,0.62
2013-2-25,39.0,32.9,28.6,32.3,30.3,27.4,98,91,74,30.23,29.90,3,0,8,0.02
2013-2-26,40.9,33.0,25.5,36.0,29.5,24.5,98,87,66,30.34,30.18,8,1,12,0.00
2013-2-27,39.8,37.9,35.4,39.3,36.8,31.3,99,96,84,30.17,29.55,10,4,27,1.42
2013-2-28,44.7,36.9,32.7,38.8,34.9,32.1,99,93,77,29.64,29.53,3,0,9,0.01